Weather in Kyzygurt

Kazakhstan     41°45′19″N   69°22′49″E
temp.,
°C
wind,
m/s
gust,
m/s
humid.,
%
clouds,
%
prec.,
mm/h
press.,
hPa
HPBL,
m
14 april, wed
wed1400:00+10ese22632 0.1 102014
03:00+9ene32551 0.0 101916
06:00+9ene33475 0.0 101826
09:00+15ene23484 0.0 101777
12:00+21n22285 0.0 10151645
15:00+22n34290 0.0 10132031
18:00+21nnw34425 0.0 1013357
21:00+14e22571 0.0 101313
15 april, thu
thu1500:00+12e22558 0.1 101418
03:00+10e116454 0.1 101411
06:00+10e226490 0.2 101511
09:00+15ssw01525 0.0 1015143
12:00+18wsw33444 0.0 1015893
15:00+20sw46320 0.0 10141521
18:00+19w33410 0.0 1014646
21:00+12ene22530 0.0 101611
16 april, fri
fri1600:00+11e225261 0.0 101512
03:00+11e224799 0.0 101412
06:00+11e223944 0.0 101411
09:00+16sse12438 0.0 1015105
12:00+20sw45330 0.0 10161415
15:00+21sw44290 0.0 10151667
18:00+20wnw33400 0.0 1015581
21:00+13ene32505 0.0 101716
17 april, sat
sat1700:00+12ene33490 0.0 101617
03:00+11ene22475 0.0 101513
06:00+11ene22469 0.0 101415
09:00+15ne24483 0.0 1014150
12:00+20n33325 0.0 1014855
15:00+21nnw533316 0.0 10131269
18:00+19n56485 0.0 1013610
21:00+14ne3355100 0.0 101545
18 april, sun
sun1800:00+14ene2249100 0.0 101511
03:00+14ssw1149100 0.0 101611
06:00+13wsw2448100 0.0 101865
09:00+10ne4679100 0.8 1021243
12:00+17s444754 0.8 10201559
15:00+19sw463961 0.0 10192583
18:00+11wsw71379100 0.4 1020384
21:00+11ese587884 1.8 1020188